| time (UTC) | temp C | wind direction | speed KPH | gust KPH | rain 1hr cm | rain 24hr cm | rain mn cm | humidity % | barometer mb |
| 20260505124533 | 17 | 215 | 14.5 | 27.4 | 0.00 | 0.00 | 0.00 | 66 | 1008.0 |
| 20260505123030 | 17 | 232 | 14.5 | 35.4 | 0.00 | 0.00 | 0.00 | 67 | 1007.7 |
| 20260505121537 | 17 | 215 | 20.9 | 33.8 | 0.00 | 0.00 | 0.00 | 66 | 1007.9 |
| 20260505120033 | 17 | 239 | 19.3 | 30.6 | 0.00 | 0.00 | 0.00 | 67 | 1007.9 |
| 20260505114530 | 17 | 209 | 17.7 | 25.7 | 0.00 | 0.00 | 0.00 | 68 | 1007.9 |
| 20260505113031 | 17 | 210 | 14.5 | 25.7 | 0.00 | 0.00 | 0.00 | 67 | 1007.9 |
| 20260505111530 | 16 | 221 | 16.1 | 24.1 | 0.00 | 0.00 | 0.00 | 67 | 1007.9 |
| 20260505101535 | 16 | 241 | 14.5 | 33.8 | 0.00 | 0.00 | 0.00 | 67 | 1007.3 |
| 20260505100034 | 17 | 221 | 17.7 | 30.6 | 0.00 | 0.00 | 0.00 | 67 | 1007.1 |
| 20260505094529 | 17 | 220 | 20.9 | 33.8 | 0.00 | 0.00 | 0.00 | 66 | 1007.0 |
| 20260505093033 | 17 | 241 | 17.7 | 32.2 | 0.00 | 0.00 | 0.00 | 67 | 1006.8 |
| 20260505091535 | 17 | 223 | 22.5 | 40.2 | 0.00 | 0.00 | 0.00 | 66 | 1006.6 |
| 20260505090040 | 17 | 228 | 20.9 | 41.8 | 0.00 | 0.00 | 0.00 | 67 | 1006.6 |
| 20260505084537 | 17 | 231 | 20.9 | 40.2 | 0.00 | 0.00 | 0.00 | 66 | 1006.4 |
| 20260505083031 | 17 | 221 | 19.3 | 32.2 | 0.00 | 0.00 | 0.00 | 67 | 1006.5 |
| 20260505081532 | 17 | 206 | 24.1 | 43.5 | 0.00 | 0.00 | 0.00 | 66 | 1006.3 |
| 20260505080041 | 17 | 224 | 22.5 | 33.8 | 0.00 | 0.00 | 0.00 | 66 | 1006.2 |
| 20260505074531 | 17 | 224 | 22.5 | 35.4 | 0.00 | 0.00 | 0.00 | 67 | 1006.2 |
| 20260505073035 | 17 | 218 | 20.9 | 35.4 | 0.00 | 0.00 | 0.00 | 66 | 1006.0 |
| 20260505071537 | 17 | 201 | 22.5 | 38.6 | 0.00 | 0.00 | 0.00 | 66 | 1005.9 |
| 20260505070034 | 17 | 232 | 20.9 | 30.6 | 0.00 | 0.00 | 0.00 | 66 | 1006.0 |
| 20260505064536 | 17 | 222 | 24.1 | 33.8 | 0.00 | 0.00 | 0.00 | 66 | 1006.0 |
| 20260505063031 | 17 | 226 | 12.9 | 38.6 | 0.00 | 0.00 | 0.00 | 67 | 1006.2 |
| 20260505061532 | 17 | 215 | 19.3 | 32.2 | 0.00 | 0.00 | 0.00 | 67 | 1006.2 |
| 20260505060037 | 17 | 234 | 11.3 | 27.4 | 0.00 | 0.00 | 0.00 | 67 | 1006.4 |
| 20260505054530 | 17 | 246 | 14.5 | 24.1 | 0.00 | 0.00 | 0.00 | 65 | 1006.6 |
| 20260505053035 | 17 | 216 | 19.3 | 30.6 | 0.00 | 0.00 | 0.00 | 65 | 1006.9 |
| 20260505051531 | 17 | 211 | 16.1 | 27.4 | 0.00 | 0.00 | 0.00 | 67 | 1007.0 |
| 20260505041529 | 17 | 212 | 12.9 | 27.4 | 0.00 | 0.00 | 0.00 | 66 | 1007.0 |
| 20260505040031 | 17 | 229 | 14.5 | 24.1 | 0.00 | 0.00 | 0.00 | 67 | 1007.0 |
| 20260505034528 | 17 | 234 | 16.1 | 24.1 | 0.00 | 0.00 | 0.00 | 67 | 1007.1 |
| 20260505033035 | 17 | 209 | 12.9 | 24.1 | 0.00 | 0.00 | 0.00 | 67 | 1006.9 |
| 20260505031541 | 17 | 206 | 11.3 | 17.7 | 0.00 | 0.00 | 0.00 | 67 | 1007.0 |
| 20260505030030 | 17 | 210 | 9.7 | 25.7 | 0.00 | 0.00 | 0.00 | 66 | 1006.9 |
| 20260505024544 | 17 | 206 | 11.3 | 19.3 | 0.00 | 0.00 | 0.00 | 66 | 1007.1 |
| 20260505023038 | 17 | 209 | 11.3 | 20.9 | 0.00 | 0.00 | 0.00 | 65 | 1007.2 |
| 20260505021529 | 17 | 206 | 11.3 | 20.9 | 0.00 | 0.00 | 0.00 | 64 | 1007.3 |
| 20260505020030 | 17 | 212 | 8.0 | 16.1 | 0.00 | 0.00 | 0.00 | 63 | 1007.3 |
| 20260505014537 | 17 | 224 | 8.0 | 16.1 | 0.00 | 0.00 | 0.00 | 62 | 1007.2 |
| 20260505013032 | 18 | 231 | 9.7 | 22.5 | 0.00 | 0.00 | 0.00 | 61 | 1007.2 |
| 20260505011530 | 18 | 218 | 11.3 | 17.7 | 0.00 | 0.00 | 0.00 | 60 | 1007.0 |
| 20260505010030 | 18 | 208 | 14.5 | 27.4 | 0.00 | 0.00 | 0.00 | 58 | 1007.0 |
| 20260505004530 | 19 | 235 | 16.1 | 30.6 | 0.00 | 0.00 | 0.00 | 56 | 1006.8 |
| 20260505003032 | 19 | 217 | 17.7 | 32.2 | 0.00 | 0.00 | 0.00 | 55 | 1006.6 |
| 20260505001536 | 20 | 246 | 22.5 | 46.7 | 0.00 | 0.00 | 0.00 | 54 | 1006.6 |
| 20260505000032 | 20 | 238 | 17.7 | 32.2 | 0.00 | 0.00 | 0.00 | 53 | 1006.2 |
| 20260504234530 | 20 | 203 | 17.7 | 37.0 | 0.00 | 0.00 | 0.00 | 52 | 1006.2 |
| 20260504233030 | 20 | 229 | 17.7 | 38.6 | 0.00 | 0.00 | 0.00 | 51 | 1006.4 |
| 20260504231531 | 20 | 248 | 22.5 | 37.0 | 0.00 | 0.00 | 0.00 | 52 | 1006.4 |
| 20260504230031 | 21 | 220 | 24.1 | 32.2 | 0.00 | 0.00 | 0.00 | 52 | 1006.6 |
| 20260504224537 | 21 | 223 | 25.7 | 43.5 | 0.00 | 0.00 | 0.00 | 52 | 1006.5 |
| 20260504223032 | 21 | 265 | 32.2 | 49.9 | 0.00 | 0.00 | 0.00 | 50 | 1006.7 |
| 20260504221531 | 21 | 267 | 29.0 | 51.5 | 0.00 | 0.00 | 0.00 | 50 | 1006.7 |
| 20260504220031 | 21 | 240 | 27.4 | 40.2 | 0.00 | 0.00 | 0.00 | 51 | 1006.8 |
| 20260504214532 | 21 | 253 | 22.5 | 45.1 | 0.00 | 0.00 | 0.00 | 50 | 1006.9 |
| 20260504213030 | 21 | 232 | 20.9 | 38.6 | 0.00 | 0.00 | 0.00 | 51 | 1006.8 |
| 20260504211531 | 21 | 271 | 20.9 | 32.2 | 0.00 | 0.00 | 0.00 | 50 | 1006.7 |
| 20260504210046 | 22 | 233 | 22.5 | 38.6 | 0.00 | 0.00 | 0.00 | 50 | 1006.7 |
| 20260504204544 | 22 | 207 | 16.1 | 29.0 | 0.00 | 0.00 | 0.00 | 49 | 1006.6 |
| 20260504203036 | 22 | 257 | 30.6 | 46.7 | 0.00 | 0.00 | 0.00 | 48 | 1006.6 |
| 20260504201532 | 22 | 225 | 12.9 | 27.4 | 0.00 | 0.00 | 0.00 | 49 | 1006.7 |
| 20260504200032 | 21 | 249 | 22.5 | 40.2 | 0.00 | 0.00 | 0.00 | 49 | 1007.0 |
| 20260504194531 | 21 | 233 | 22.5 | 40.2 | 0.00 | 0.00 | 0.00 | 52 | 1007.2 |
| 20260504193035 | 21 | 218 | 24.1 | 46.7 | 0.00 | 0.00 | 0.00 | 51 | 1007.3 |
| 20260504191532 | 21 | 223 | 17.7 | 37.0 | 0.00 | 0.00 | 0.00 | 50 | 1007.5 |
| 20260504190031 | 21 | 219 | 20.9 | 32.2 | 0.00 | 0.00 | 0.00 | 51 | 1007.7 |
| 20260504184528 | 20 | 218 | 17.7 | 32.2 | 0.00 | 0.00 | 0.00 | 52 | 1007.7 |
| 20260504183030 | 20 | 226 | 24.1 | 43.5 | 0.00 | 0.00 | 0.00 | 50 | 1007.8 |
| 20260504181529 | 20 | 243 | 19.3 | 37.0 | 0.00 | 0.00 | 0.00 | 51 | 1008.1 |
| 20260504180030 | 20 | 225 | 19.3 | 37.0 | 0.00 | 0.00 | 0.00 | 52 | 1008.1 |
| 20260504174530 | 20 | 175 | 22.5 | 32.2 | 0.00 | 0.00 | 0.00 | 51 | 1008.3 |
| 20260504173030 | 20 | 205 | 17.7 | 40.2 | 0.00 | 0.00 | 0.00 | 51 | 1008.3 |
| 20260504171529 | 18 | 234 | 19.3 | 38.6 | 0.00 | 0.00 | 0.00 | 53 | 1008.6 |